{"data":{"norad_id":65752,"intl_designator":"2025-216U","name":"STARLINK-34893","alt_names":[],"object_type":"PAYLOAD","status":"ACTIVE","operator":null,"country":"US","launch_date":"2025-09-25","launch_site_code":"AFETR","launch_vehicle":null,"mission":null,"orbit_class":"UNKNOWN","rcs_meters":null,"size_class":null,"mass_kg":null,"dimensions":null,"purposes":["comms"],"wikipedia_slug":null,"has_3d_model":false,"image_url":null,"decayed_at":null,"tle_current":{"epoch":"2026-05-24T06:30:34.998624Z","epoch_age_seconds":141084,"freshness":"FRESH","line1":"1 65752U 25216U   26144.27123841  .00010206  00000+0  35622-3 0  9995","line2":"2 65752  53.1612 341.9550 0001236  81.9156 278.1985 15.30202368 38083","mean_motion":15.30202368,"eccentricity":0.0001236,"inclination_deg":53.1612,"raan_deg":341.955,"arg_perigee_deg":81.9156,"mean_anomaly_deg":278.1985,"bstar":0.00035622,"rev_number":3808,"period_min":94.105200077693,"perigee_km":474.3609255654,"apogee_km":476.05507244915,"semimajor_km":6853.3449990073,"source":"CELESTRAK","updated_at":"2026-05-25T13:38:20.933143Z"}}}